Location: Bacharowice
(49.9333°N, 19.5833°E)
Time: 04:01:26
(UTC+00:00)

COBE Rocket - Pass Details

Date: 11 May 2021
Orbit: 679 x 782 km, 97.1° (Epoch: 22 June)

Event Time Altitude Azimuth Distance (km) Brightness Sun altitude
Exits shadow 22:24:30 52° 187° (S) 949 4.0 -21.9°
Maximum altitude 22:25:44 76° 258° (WSW) 796 4.0 -21.9°
Drops below altitude 10° 22:30:55 10° 345° (NNW) 2,339 7.6 -21.9°
Sets 22:33:16 0° 347° (NNW) 3,278 8.7 -21.9°
